Location: Lake Lucerne
(45.5315°N, 88.8489°W)
Time: 22:28:10
(UTC-05:00)

Envisat - Visible Passes

Search period start: 21 August 2018 00:00
Search period end: 31 August 2018 00:00
Orbit: 764 x 766 km, 98.2° (Epoch: 21 August)

Date Brightness Start Highest point End Pass type
(mag) Time Alt. Az. Time Alt. Az. Time Alt. Az.
21 Aug 3.9 20:22:34 10° S 20:27:30 52° W 20:32:29 10° NNW visible
22 Aug 5.8 21:27:33 10° WSW 21:30:20 15° W 21:33:07 10° NW visible
23 Aug 4.9 20:48:46 10° SSW 20:53:13 31° W 20:57:43 10° NNW visible
24 Aug 3.5 20:11:17 10° S 20:16:19 66° WSW 20:21:23 10° NNW visible
25 Aug 5.6 21:15:33 10° SW 21:19:01 18° W 21:22:31 10° NW visible
26 Aug 4.5 20:37:16 10° SSW 20:41:59 38° W 20:46:43 10° NNW visible
27 Aug 6.1 21:44:14 10° W 21:44:57 10° W 21:45:39 10° WNW visible
28 Aug 5.4 21:03:46 10° SW 21:07:45 23° W 21:11:45 10° NW visible
29 Aug 4.1 20:25:52 10° S 20:30:45 48° W 20:35:41 10° NNW visible
30 Aug 5.8 21:31:12 10° WSW 21:33:37 13° W 21:36:01 10° WNW visible
